Year,Month,Day,Hour,Minute,Value (Times are PST for temperature in C)
2015,04,29,00,00,8.70
2015,04,29,00,01,8.70
2015,04,29,00,02,8.70
2015,04,29,00,03,8.70
2015,04,29,00,04,8.60
2015,04,29,00,05,8.60
2015,04,29,00,06,8.60
2015,04,29,00,07,8.60
2015,04,29,00,08,8.60
2015,04,29,00,09,8.60
2015,04,29,00,10,8.60
2015,04,29,00,11,8.60
2015,04,29,00,12,8.50
2015,04,29,00,13,8.50
2015,04,29,00,14,8.50
2015,04,29,00,15,8.50
2015,04,29,00,16,8.50
2015,04,29,00,17,8.50
2015,04,29,00,18,8.50
2015,04,29,00,19,8.40
2015,04,29,00,20,8.40
2015,04,29,00,21,8.40
2015,04,29,00,22,8.40
2015,04,29,00,23,8.40
2015,04,29,00,24,8.40
2015,04,29,00,25,8.40
2015,04,29,00,26,8.40
2015,04,29,00,27,8.40
2015,04,29,00,28,8.40
2015,04,29,00,29,8.40
2015,04,29,00,30,8.40
2015,04,29,00,31,8.40
2015,04,29,00,32,8.40
2015,04,29,00,33,8.40
2015,04,29,00,34,8.40
2015,04,29,00,35,8.30
2015,04,29,00,36,8.30
2015,04,29,00,37,8.30
2015,04,29,00,38,8.30
2015,04,29,00,39,8.30
2015,04,29,00,40,8.30
2015,04,29,00,41,8.30
2015,04,29,00,42,8.30
2015,04,29,00,43,8.30
2015,04,29,00,44,8.30
2015,04,29,00,45,8.30
2015,04,29,00,46,8.20
2015,04,29,00,47,8.20
2015,04,29,00,48,8.20
2015,04,29,00,49,8.20
2015,04,29,00,50,8.20
2015,04,29,00,51,8.10
2015,04,29,00,52,8.10
2015,04,29,00,53,8.00
2015,04,29,00,54,8.00
2015,04,29,00,55,7.90
2015,04,29,00,56,7.90
2015,04,29,00,57,7.90
2015,04,29,00,58,7.80
2015,04,29,00,59,7.80
2015,04,29,01,00,7.80
2015,04,29,01,01,7.70
2015,04,29,01,02,7.70
2015,04,29,01,03,7.60
2015,04,29,01,04,7.60
2015,04,29,01,05,7.60
2015,04,29,01,06,7.50
2015,04,29,01,07,7.40
2015,04,29,01,08,7.40
2015,04,29,01,09,7.40
2015,04,29,01,10,7.40
2015,04,29,01,11,7.40
2015,04,29,01,12,7.40
2015,04,29,01,13,7.40
2015,04,29,01,14,7.30
2015,04,29,01,15,7.30
2015,04,29,01,16,7.30
2015,04,29,01,17,7.30
2015,04,29,01,18,7.30
2015,04,29,01,19,7.30
2015,04,29,01,20,7.20
2015,04,29,01,21,7.20
2015,04,29,01,22,7.20
2015,04,29,01,23,7.20
2015,04,29,01,24,7.20
2015,04,29,01,25,7.20
2015,04,29,01,26,7.20
2015,04,29,01,27,7.20
2015,04,29,01,28,7.20
2015,04,29,01,29,7.20
2015,04,29,01,30,7.20
2015,04,29,01,31,7.20
2015,04,29,01,32,7.20
2015,04,29,01,33,7.20
2015,04,29,01,34,7.20
2015,04,29,01,35,7.20
2015,04,29,01,36,7.10
2015,04,29,01,37,7.10
2015,04,29,01,38,7.10
2015,04,29,01,39,7.20
2015,04,29,01,40,7.20
2015,04,29,01,41,7.20
2015,04,29,01,42,7.30
2015,04,29,01,43,7.30
2015,04,29,01,44,7.40
2015,04,29,01,45,7.50
2015,04,29,01,46,7.60
2015,04,29,01,47,7.70
2015,04,29,01,48,7.70
2015,04,29,01,49,7.80
2015,04,29,01,50,7.90
2015,04,29,01,51,8.00
2015,04,29,01,52,8.10
2015,04,29,01,53,8.20
2015,04,29,01,54,8.30
2015,04,29,01,55,8.40
2015,04,29,01,56,8.40
2015,04,29,01,57,8.50
2015,04,29,01,58,8.50
2015,04,29,01,59,8.50
2015,04,29,02,00,8.50
2015,04,29,02,01,8.50
2015,04,29,02,02,8.40
2015,04,29,02,03,8.40
2015,04,29,02,04,8.30
2015,04,29,02,05,8.30
2015,04,29,02,06,8.30
2015,04,29,02,07,8.20
2015,04,29,02,08,8.20
2015,04,29,02,09,8.20
2015,04,29,02,10,8.10
2015,04,29,02,11,8.00
2015,04,29,02,12,8.00
2015,04,29,02,13,7.90
2015,04,29,02,14,7.90
2015,04,29,02,15,7.80
2015,04,29,02,16,7.80
2015,04,29,02,17,7.70
2015,04,29,02,18,7.70
2015,04,29,02,19,7.60
2015,04,29,02,20,7.50
2015,04,29,02,21,7.50
2015,04,29,02,22,7.40
2015,04,29,02,23,7.30
2015,04,29,02,24,7.30
2015,04,29,02,25,7.20
2015,04,29,02,26,7.20
2015,04,29,02,27,7.20
2015,04,29,02,28,7.10
2015,04,29,02,29,7.00
2015,04,29,02,30,7.00
2015,04,29,02,31,7.00
2015,04,29,02,32,6.90
2015,04,29,02,33,6.90
2015,04,29,02,34,6.90
2015,04,29,02,35,6.80
2015,04,29,02,36,6.80
2015,04,29,02,37,6.70
2015,04,29,02,38,6.70
2015,04,29,02,39,6.70
2015,04,29,02,40,6.70
2015,04,29,02,41,6.60
2015,04,29,02,42,6.60
2015,04,29,02,43,6.60
2015,04,29,02,44,6.60
2015,04,29,02,45,6.60
2015,04,29,02,46,6.50
2015,04,29,02,47,6.50
2015,04,29,02,48,6.40
2015,04,29,02,49,6.40
2015,04,29,02,50,6.40
2015,04,29,02,51,6.30
2015,04,29,02,52,6.30
2015,04,29,02,53,6.30
2015,04,29,02,54,6.20
2015,04,29,02,55,6.20
2015,04,29,02,56,6.20
2015,04,29,02,57,6.10
2015,04,29,02,58,6.10
2015,04,29,02,59,6.10
2015,04,29,03,00,6.10
2015,04,29,03,01,6.10
2015,04,29,03,02,6.00
2015,04,29,03,03,6.00
2015,04,29,03,04,6.00
2015,04,29,03,05,5.90
2015,04,29,03,06,5.90
2015,04,29,03,07,5.90
2015,04,29,03,08,5.90
2015,04,29,03,09,5.90
2015,04,29,03,10,5.90
2015,04,29,03,11,5.80
2015,04,29,03,12,5.80
2015,04,29,03,13,5.80
2015,04,29,03,14,5.80
2015,04,29,03,15,5.80
2015,04,29,03,16,5.80
2015,04,29,03,17,5.80
2015,04,29,03,18,5.70
2015,04,29,03,19,5.70
2015,04,29,03,20,5.70
2015,04,29,03,21,5.70
2015,04,29,03,22,5.60
2015,04,29,03,23,5.60
2015,04,29,03,24,5.60
2015,04,29,03,25,5.60
2015,04,29,03,26,5.60
2015,04,29,03,27,5.60
2015,04,29,03,28,5.50
2015,04,29,03,29,5.50
2015,04,29,03,30,5.50
2015,04,29,03,31,5.40
2015,04,29,03,32,5.40
2015,04,29,03,33,5.40
2015,04,29,03,34,5.40
2015,04,29,03,35,5.40
2015,04,29,03,36,5.40
2015,04,29,03,37,5.30
2015,04,29,03,38,5.30
2015,04,29,03,39,5.30
2015,04,29,03,40,5.30
2015,04,29,03,41,5.30
2015,04,29,03,42,5.30
2015,04,29,03,43,5.30
2015,04,29,03,44,5.30
2015,04,29,03,45,5.30
2015,04,29,03,46,5.30
2015,04,29,03,47,5.30
2015,04,29,03,48,5.20
2015,04,29,03,49,5.20
2015,04,29,03,50,5.20
2015,04,29,03,51,5.20
2015,04,29,03,52,5.20
2015,04,29,03,53,5.20
2015,04,29,03,54,5.20
2015,04,29,03,55,5.20
2015,04,29,03,56,5.20
2015,04,29,03,57,5.20
2015,04,29,03,58,5.20
2015,04,29,03,59,5.20
2015,04,29,04,00,5.20
2015,04,29,04,01,5.20
2015,04,29,04,02,5.20
2015,04,29,04,03,5.20
2015,04,29,04,04,5.20
2015,04,29,04,05,5.20
2015,04,29,04,06,5.10
2015,04,29,04,07,5.10
2015,04,29,04,08,5.10
2015,04,29,04,09,5.10
2015,04,29,04,10,5.10
2015,04,29,04,11,5.10
2015,04,29,04,12,5.10
2015,04,29,04,13,5.10
2015,04,29,04,14,5.10
2015,04,29,04,15,5.10
2015,04,29,04,16,5.10
2015,04,29,04,17,5.00
2015,04,29,04,18,5.00
2015,04,29,04,19,5.00
2015,04,29,04,20,5.00
2015,04,29,04,21,5.00
2015,04,29,04,22,5.00
2015,04,29,04,23,5.00
2015,04,29,04,24,4.90
2015,04,29,04,25,4.90
2015,04,29,04,26,4.90
2015,04,29,04,27,4.90
2015,04,29,04,28,4.90
2015,04,29,04,29,4.90
2015,04,29,04,30,4.90
2015,04,29,04,31,4.90
2015,04,29,04,32,4.90
2015,04,29,04,33,4.90
2015,04,29,04,34,4.90
2015,04,29,04,35,4.90
2015,04,29,04,36,5.00
2015,04,29,04,37,5.00
2015,04,29,04,38,5.00
2015,04,29,04,39,5.00
2015,04,29,04,40,5.00
2015,04,29,04,41,5.00
2015,04,29,04,42,5.00
2015,04,29,04,43,5.00
2015,04,29,04,44,4.90
2015,04,29,04,45,4.90
2015,04,29,04,46,4.90
2015,04,29,04,47,4.90
2015,04,29,04,48,4.90
2015,04,29,04,49,4.90
2015,04,29,04,50,4.90
2015,04,29,04,51,4.90
2015,04,29,04,52,4.90
2015,04,29,04,53,4.90
2015,04,29,04,54,4.90
2015,04,29,04,55,5.00
2015,04,29,04,56,5.00
2015,04,29,04,57,5.00
2015,04,29,04,58,5.00
2015,04,29,04,59,5.00
2015,04,29,05,00,5.00
2015,04,29,05,01,5.10
2015,04,29,05,02,5.10
2015,04,29,05,03,5.10
2015,04,29,05,04,5.10
2015,04,29,05,05,5.10
2015,04,29,05,06,5.10
2015,04,29,05,07,5.10
2015,04,29,05,08,5.10
2015,04,29,05,09,5.10
2015,04,29,05,10,5.10
2015,04,29,05,11,5.10
2015,04,29,05,12,5.10
2015,04,29,05,13,5.10
2015,04,29,05,14,5.10
2015,04,29,05,15,5.10
2015,04,29,05,16,5.10
2015,04,29,05,17,5.10
2015,04,29,05,18,5.10
2015,04,29,05,19,5.10
2015,04,29,05,20,5.10
2015,04,29,05,21,5.10
2015,04,29,05,22,5.10
2015,04,29,05,23,5.10
2015,04,29,05,24,5.10
2015,04,29,05,25,5.10
2015,04,29,05,26,5.20
2015,04,29,05,27,5.20
2015,04,29,05,28,5.20
2015,04,29,05,29,5.20
2015,04,29,05,30,5.20
2015,04,29,05,31,5.20
2015,04,29,05,32,5.30
2015,04,29,05,33,5.30
2015,04,29,05,34,5.30
2015,04,29,05,35,5.30
2015,04,29,05,36,5.30
2015,04,29,05,37,5.30
2015,04,29,05,38,5.30
2015,04,29,05,39,5.40
2015,04,29,05,40,5.40
2015,04,29,05,41,5.40
2015,04,29,05,42,5.40
2015,04,29,05,43,5.40
2015,04,29,05,44,5.40
2015,04,29,05,45,5.40
2015,04,29,05,46,5.40
2015,04,29,05,47,5.40
2015,04,29,05,48,5.50
2015,04,29,05,49,5.50
2015,04,29,05,50,5.50
2015,04,29,05,51,5.50
2015,04,29,05,52,5.50
2015,04,29,05,53,5.60
2015,04,29,05,54,5.60
2015,04,29,05,55,5.60
2015,04,29,05,56,5.60
2015,04,29,05,57,5.70
2015,04,29,05,58,5.70
2015,04,29,05,59,5.70
2015,04,29,06,00,5.70
2015,04,29,06,01,5.80
2015,04,29,06,02,5.80
2015,04,29,06,03,5.80
2015,04,29,06,04,5.80
2015,04,29,06,05,5.90
2015,04,29,06,06,5.90
2015,04,29,06,07,5.90
2015,04,29,06,08,6.00
2015,04,29,06,09,6.00
2015,04,29,06,10,6.10
2015,04,29,06,11,6.10
2015,04,29,06,12,6.10
2015,04,29,06,13,6.10
2015,04,29,06,14,6.20
2015,04,29,06,15,6.20
2015,04,29,06,16,6.20
2015,04,29,06,17,6.20
2015,04,29,06,18,6.20
2015,04,29,06,19,6.30
2015,04,29,06,20,6.30
2015,04,29,06,21,6.30
2015,04,29,06,22,6.30
2015,04,29,06,23,6.30
2015,04,29,06,24,6.30
2015,04,29,06,25,6.30
2015,04,29,06,26,6.40
2015,04,29,06,27,6.40
2015,04,29,06,28,6.40
2015,04,29,06,29,6.40
2015,04,29,06,30,6.50
2015,04,29,06,31,6.50
2015,04,29,06,32,6.60
2015,04,29,06,33,6.60
2015,04,29,06,34,6.60
2015,04,29,06,35,6.70
2015,04,29,06,36,6.70
2015,04,29,06,37,6.80
2015,04,29,06,38,6.80
2015,04,29,06,39,6.80
2015,04,29,06,40,6.90
2015,04,29,06,41,6.90
2015,04,29,06,42,7.00
2015,04,29,06,43,7.00
2015,04,29,06,44,7.10
2015,04,29,06,45,7.10
2015,04,29,06,46,7.20
2015,04,29,06,47,7.20
2015,04,29,06,48,7.20
2015,04,29,06,49,7.20
2015,04,29,06,50,7.30
2015,04,29,06,51,7.30
2015,04,29,06,52,7.40
2015,04,29,06,53,7.40
2015,04,29,06,54,7.50
2015,04,29,06,55,7.50
2015,04,29,06,56,7.60
2015,04,29,06,57,7.60
2015,04,29,06,58,7.60
2015,04,29,06,59,7.70
2015,04,29,07,00,7.70
2015,04,29,07,01,7.80
2015,04,29,07,02,7.90
2015,04,29,07,03,8.00
2015,04,29,07,04,8.00
2015,04,29,07,05,8.10
2015,04,29,07,06,8.20
2015,04,29,07,07,8.30
2015,04,29,07,08,8.30
2015,04,29,07,09,8.40
2015,04,29,07,10,8.50
2015,04,29,07,11,8.60
2015,04,29,07,12,8.70
2015,04,29,07,13,8.80
2015,04,29,07,14,8.80
2015,04,29,07,15,8.90
2015,04,29,07,16,8.90
2015,04,29,07,17,8.90
2015,04,29,07,18,9.00
2015,04,29,07,19,9.00
2015,04,29,07,20,9.00
2015,04,29,07,21,9.00
2015,04,29,07,22,9.10
2015,04,29,07,23,9.10
2015,04,29,07,24,9.00
2015,04,29,07,25,9.00
2015,04,29,07,26,9.00
2015,04,29,07,27,9.00
2015,04,29,07,28,8.90
2015,04,29,07,29,8.90
2015,04,29,07,30,8.90
2015,04,29,07,31,8.90
2015,04,29,07,32,8.90
2015,04,29,07,33,8.90
2015,04,29,07,34,8.90
2015,04,29,07,35,8.90
2015,04,29,07,36,8.90
2015,04,29,07,37,8.90
2015,04,29,07,38,8.90
2015,04,29,07,39,8.90
2015,04,29,07,40,8.90
2015,04,29,07,41,8.80
2015,04,29,07,42,8.80
2015,04,29,07,43,8.90
2015,04,29,07,44,8.90
2015,04,29,07,45,8.90
2015,04,29,07,46,8.90
2015,04,29,07,47,8.90
2015,04,29,07,48,8.90
2015,04,29,07,49,9.00
2015,04,29,07,50,9.00
2015,04,29,07,51,9.10
2015,04,29,07,52,9.10
2015,04,29,07,53,9.20
2015,04,29,07,54,9.20
2015,04,29,07,55,9.20
2015,04,29,07,56,9.30
2015,04,29,07,57,9.30
2015,04,29,07,58,9.30
2015,04,29,07,59,9.40
2015,04,29,08,00,9.40
2015,04,29,08,01,9.50
2015,04,29,08,02,9.50
2015,04,29,08,03,9.60
2015,04,29,08,04,9.60
2015,04,29,08,05,9.60
2015,04,29,08,06,9.60
2015,04,29,08,07,9.70
2015,04,29,08,08,9.70
2015,04,29,08,09,9.70
2015,04,29,08,10,9.80
2015,04,29,08,11,9.80
2015,04,29,08,12,9.80
2015,04,29,08,13,9.80
2015,04,29,08,14,9.90
2015,04,29,08,15,9.90
2015,04,29,08,16,9.90
2015,04,29,08,17,10.00
2015,04,29,08,18,10.10
2015,04,29,08,19,10.10
2015,04,29,08,20,10.20
2015,04,29,08,21,10.20
2015,04,29,08,22,10.30
2015,04,29,08,23,10.30
2015,04,29,08,24,10.40
2015,04,29,08,25,10.40
2015,04,29,08,26,10.50
2015,04,29,08,27,10.60
2015,04,29,08,28,10.60
2015,04,29,08,29,10.70
2015,04,29,08,30,10.70
2015,04,29,08,31,10.80
2015,04,29,08,32,10.80
2015,04,29,08,33,10.80
2015,04,29,08,34,10.80
2015,04,29,08,35,10.90
2015,04,29,08,36,10.90
2015,04,29,08,37,10.90
2015,04,29,08,38,11.00
2015,04,29,08,39,11.00
2015,04,29,08,40,11.10
2015,04,29,08,41,11.10
2015,04,29,08,42,11.10
2015,04,29,08,43,11.10
2015,04,29,08,44,11.20
2015,04,29,08,45,11.20
2015,04,29,08,46,11.20
2015,04,29,08,47,11.30
2015,04,29,08,48,11.30
2015,04,29,08,49,11.40
2015,04,29,08,50,11.50
2015,04,29,08,51,11.60
2015,04,29,08,52,11.60
2015,04,29,08,53,11.70
2015,04,29,08,54,11.80
2015,04,29,08,55,11.80
2015,04,29,08,56,11.90
2015,04,29,08,57,12.00
2015,04,29,08,58,12.00
2015,04,29,08,59,12.10
2015,04,29,09,00,12.10
2015,04,29,09,01,12.10
2015,04,29,09,02,12.20
2015,04,29,09,03,12.30
2015,04,29,09,04,12.30
2015,04,29,09,05,12.40
2015,04,29,09,06,12.50
2015,04,29,09,07,12.60
2015,04,29,09,08,12.70
2015,04,29,09,09,12.80
2015,04,29,09,10,12.80
2015,04,29,09,11,12.80
2015,04,29,09,12,12.80
2015,04,29,09,13,12.70
2015,04,29,09,14,12.70
2015,04,29,09,15,12.70
2015,04,29,09,16,12.70
2015,04,29,09,17,12.70
2015,04,29,09,18,12.80
2015,04,29,09,19,12.90
2015,04,29,09,20,12.90
2015,04,29,09,21,12.90
2015,04,29,09,22,12.80
2015,04,29,09,23,12.80
2015,04,29,09,24,12.80
2015,04,29,09,25,12.70
2015,04,29,09,26,12.70
2015,04,29,09,27,12.60
2015,04,29,09,28,12.50
2015,04,29,09,29,12.50
2015,04,29,09,30,12.50
2015,04,29,09,31,12.40
2015,04,29,09,32,12.40
2015,04,29,09,33,12.50
2015,04,29,09,34,12.50
2015,04,29,09,35,12.50
2015,04,29,09,36,12.50
2015,04,29,09,37,12.50
2015,04,29,09,38,12.50
2015,04,29,09,39,12.60
2015,04,29,09,40,12.60
2015,04,29,09,41,12.70
2015,04,29,09,42,12.70
2015,04,29,09,43,12.70
2015,04,29,09,44,12.80
2015,04,29,09,45,12.80
2015,04,29,09,46,12.80
2015,04,29,09,47,12.80
2015,04,29,09,48,12.80
2015,04,29,09,49,12.80
2015,04,29,09,50,12.80
2015,04,29,09,51,12.80
2015,04,29,09,52,12.80
2015,04,29,09,53,12.80
2015,04,29,09,54,12.90
2015,04,29,09,55,12.90
2015,04,29,09,56,13.00
2015,04,29,09,57,13.10
2015,04,29,09,58,13.20
2015,04,29,09,59,13.30
2015,04,29,10,00,13.40
2015,04,29,10,01,13.50
2015,04,29,10,02,13.70
2015,04,29,10,03,13.80
2015,04,29,10,04,13.70
2015,04,29,10,05,13.60
2015,04,29,10,06,13.50
2015,04,29,10,07,13.50
2015,04,29,10,08,13.40
2015,04,29,10,09,13.40
2015,04,29,10,10,13.40
2015,04,29,10,11,13.40
2015,04,29,10,12,13.50
2015,04,29,10,13,13.50
2015,04,29,10,14,13.50
2015,04,29,10,15,13.50
2015,04,29,10,16,13.50
2015,04,29,10,17,13.50
2015,04,29,10,18,13.60
2015,04,29,10,19,13.60
2015,04,29,10,20,13.70
2015,04,29,10,21,13.70
2015,04,29,10,22,13.80
2015,04,29,10,23,13.80
2015,04,29,10,24,13.90
2015,04,29,10,25,13.90
2015,04,29,10,26,14.00
2015,04,29,10,27,14.00
2015,04,29,10,28,13.90
2015,04,29,10,29,13.90
2015,04,29,10,30,13.80
2015,04,29,10,31,13.70
2015,04,29,10,32,13.70
2015,04,29,10,33,13.60
2015,04,29,10,34,13.60
2015,04,29,10,35,13.60
2015,04,29,10,36,13.60
2015,04,29,10,37,13.60
2015,04,29,10,38,13.60
2015,04,29,10,39,13.60
2015,04,29,10,40,13.70
2015,04,29,10,41,13.80
2015,04,29,10,42,14.00
2015,04,29,10,43,14.10
2015,04,29,10,44,14.20
2015,04,29,10,45,14.30
2015,04,29,10,46,14.20
2015,04,29,10,47,14.20
2015,04,29,10,48,14.10
2015,04,29,10,49,14.00
2015,04,29,10,50,13.90
2015,04,29,10,51,13.80
2015,04,29,10,52,13.70
2015,04,29,10,53,13.50
2015,04,29,10,54,13.30
2015,04,29,10,55,13.20
2015,04,29,10,56,13.10
2015,04,29,10,57,13.00
2015,04,29,10,58,12.90
2015,04,29,10,59,12.90
2015,04,29,11,00,12.80
2015,04,29,11,01,12.80
2015,04,29,11,02,12.80
2015,04,29,11,03,12.80
2015,04,29,11,04,12.80
2015,04,29,11,05,12.80
2015,04,29,11,06,12.80
2015,04,29,11,07,12.80
2015,04,29,11,08,12.80
2015,04,29,11,09,12.80
2015,04,29,11,10,12.80
2015,04,29,11,11,12.90
2015,04,29,11,12,12.90
2015,04,29,11,13,12.80
2015,04,29,11,14,12.80
2015,04,29,11,15,12.90
2015,04,29,11,16,12.80
2015,04,29,11,17,12.90
2015,04,29,11,18,12.90
2015,04,29,11,19,13.00
2015,04,29,11,20,13.10
2015,04,29,11,21,13.10
2015,04,29,11,22,13.10
2015,04,29,11,23,13.00
2015,04,29,11,24,13.00
2015,04,29,11,25,13.00
2015,04,29,11,26,12.90
2015,04,29,11,27,12.90
2015,04,29,11,28,12.80
2015,04,29,11,29,12.80
2015,04,29,11,30,12.80
2015,04,29,11,31,12.90
2015,04,29,11,32,12.80
2015,04,29,11,33,12.90
2015,04,29,11,34,12.90
2015,04,29,11,35,12.90
2015,04,29,11,36,12.90
2015,04,29,11,37,12.80
2015,04,29,11,38,12.80
2015,04,29,11,39,12.80
2015,04,29,11,40,12.80
2015,04,29,11,41,12.80
2015,04,29,11,42,12.80
2015,04,29,11,43,12.80
2015,04,29,11,44,12.90
2015,04,29,11,45,12.90
2015,04,29,11,46,13.00
2015,04,29,11,47,13.00
2015,04,29,11,48,13.00
2015,04,29,11,49,13.00
2015,04,29,11,50,12.90
2015,04,29,11,51,12.90
2015,04,29,11,52,12.80
2015,04,29,11,53,12.90
2015,04,29,11,54,12.90
2015,04,29,11,55,13.00
2015,04,29,11,56,13.00
2015,04,29,11,57,13.10
2015,04,29,11,58,13.10
2015,04,29,11,59,13.20
2015,04,29,12,00,13.20
2015,04,29,12,01,13.20
2015,04,29,12,02,13.30
2015,04,29,12,03,13.30
2015,04,29,12,04,13.30
2015,04,29,12,05,13.40
2015,04,29,12,06,13.50
2015,04,29,12,07,13.60
2015,04,29,12,08,13.70
2015,04,29,12,09,13.70
2015,04,29,12,10,13.80
2015,04,29,12,11,13.80
2015,04,29,12,12,13.80
2015,04,29,12,13,13.80
2015,04,29,12,14,13.80
2015,04,29,12,15,13.90
2015,04,29,12,16,13.80
2015,04,29,12,17,13.80
2015,04,29,12,18,13.80
2015,04,29,12,19,13.80
2015,04,29,12,20,13.90
2015,04,29,12,21,14.00
2015,04,29,12,22,14.10
2015,04,29,12,23,14.20
2015,04,29,12,24,14.30
2015,04,29,12,25,14.40
2015,04,29,12,26,14.50
2015,04,29,12,27,14.60
2015,04,29,12,28,14.60
2015,04,29,12,29,14.60
2015,04,29,12,30,14.60
2015,04,29,12,31,14.40
2015,04,29,12,32,14.20
2015,04,29,12,33,14.20
2015,04,29,12,34,14.10
2015,04,29,12,35,14.10
2015,04,29,12,36,14.20
2015,04,29,12,37,14.20
2015,04,29,12,38,14.10
2015,04,29,12,39,14.00
2015,04,29,12,40,13.90
2015,04,29,12,41,13.90
2015,04,29,12,42,13.90
2015,04,29,12,43,13.90
2015,04,29,12,44,13.90
2015,04,29,12,45,13.90
2015,04,29,12,46,13.80
2015,04,29,12,47,13.80
2015,04,29,12,48,13.80
2015,04,29,12,49,13.80
2015,04,29,12,50,13.80
2015,04,29,12,51,13.80
2015,04,29,12,52,13.90
2015,04,29,12,53,13.90
2015,04,29,12,54,13.90
2015,04,29,12,55,13.90
2015,04,29,12,56,13.90
2015,04,29,12,57,13.90
2015,04,29,12,58,13.90
2015,04,29,12,59,13.90
2015,04,29,13,00,13.90
2015,04,29,13,01,13.90
2015,04,29,13,02,13.90
2015,04,29,13,03,13.90
2015,04,29,13,04,13.90
2015,04,29,13,05,13.90
2015,04,29,13,06,13.90
2015,04,29,13,07,13.80
2015,04,29,13,08,13.80
2015,04,29,13,09,13.70
2015,04,29,13,10,13.70
2015,04,29,13,11,13.70
2015,04,29,13,12,13.60
2015,04,29,13,13,13.60
2015,04,29,13,14,13.50
2015,04,29,13,15,13.50
2015,04,29,13,16,13.40
2015,04,29,13,17,13.30
2015,04,29,13,18,13.30
2015,04,29,13,19,13.20
2015,04,29,13,20,13.20
2015,04,29,13,21,13.20
2015,04,29,13,22,13.20
2015,04,29,13,23,13.20
2015,04,29,13,24,13.30
2015,04,29,13,25,13.30
2015,04,29,13,26,13.40
2015,04,29,13,27,13.40
2015,04,29,13,28,13.40
2015,04,29,13,29,13.30
2015,04,29,13,30,13.30
2015,04,29,13,31,13.30
2015,04,29,13,32,13.30
2015,04,29,13,33,13.30
2015,04,29,13,34,13.30
2015,04,29,13,35,13.40
2015,04,29,13,36,13.40
2015,04,29,13,37,13.30
2015,04,29,13,38,13.30
2015,04,29,13,39,13.30
2015,04,29,13,40,13.30
2015,04,29,13,41,13.40
2015,04,29,13,42,13.40
2015,04,29,13,43,13.40
2015,04,29,13,44,13.40
2015,04,29,13,45,13.40
2015,04,29,13,46,13.30
2015,04,29,13,47,13.30
2015,04,29,13,48,13.30
2015,04,29,13,49,13.30
2015,04,29,13,50,13.30
2015,04,29,13,51,13.40
2015,04,29,13,52,13.40
2015,04,29,13,53,13.30
2015,04,29,13,54,13.30
2015,04,29,13,55,13.30
2015,04,29,13,56,13.30
2015,04,29,13,57,13.30
2015,04,29,13,58,13.30
2015,04,29,13,59,13.30
2015,04,29,14,00,13.30
2015,04,29,14,01,13.30
2015,04,29,14,02,13.30
2015,04,29,14,03,13.30
2015,04,29,14,04,13.40
2015,04,29,14,05,13.40
2015,04,29,14,06,13.40
2015,04,29,14,07,13.40
2015,04,29,14,08,13.40
2015,04,29,14,09,13.40
2015,04,29,14,10,13.50
2015,04,29,14,11,13.50
2015,04,29,14,12,13.50
2015,04,29,14,13,13.50
2015,04,29,14,14,13.50
2015,04,29,14,15,13.50
2015,04,29,14,16,13.40
2015,04,29,14,17,13.40
2015,04,29,14,18,13.40
2015,04,29,14,19,13.40
2015,04,29,14,20,13.40
2015,04,29,14,21,13.50
2015,04,29,14,22,13.50
2015,04,29,14,23,13.60
2015,04,29,14,24,13.60
2015,04,29,14,25,13.70
2015,04,29,14,26,13.70
2015,04,29,14,27,13.80
2015,04,29,14,28,13.80
2015,04,29,14,29,13.80
2015,04,29,14,30,13.70
2015,04,29,14,31,13.80
2015,04,29,14,32,13.80
2015,04,29,14,33,13.80
2015,04,29,14,34,13.80
2015,04,29,14,35,13.90
2015,04,29,14,36,13.90
2015,04,29,14,37,13.90
2015,04,29,14,38,13.90
2015,04,29,14,39,13.80
2015,04,29,14,40,13.90
2015,04,29,14,41,13.90
2015,04,29,14,42,13.90
2015,04,29,14,43,14.00
2015,04,29,14,44,14.00
2015,04,29,14,45,14.10
2015,04,29,14,46,14.10
2015,04,29,14,47,14.10
2015,04,29,14,48,14.20
2015,04,29,14,49,14.20
2015,04,29,14,50,14.20
2015,04,29,14,51,14.30
2015,04,29,14,52,14.30
2015,04,29,14,53,14.40
2015,04,29,14,54,14.40
2015,04,29,14,55,14.50
2015,04,29,14,56,14.50
2015,04,29,14,57,14.60
2015,04,29,14,58,14.60
2015,04,29,14,59,14.60
2015,04,29,15,00,14.70
2015,04,29,15,01,14.70
2015,04,29,15,02,14.70
2015,04,29,15,03,14.70
2015,04,29,15,04,14.80
2015,04,29,15,05,14.80
2015,04,29,15,06,14.80
2015,04,29,15,07,14.80
2015,04,29,15,08,14.90
2015,04,29,15,09,15.00
2015,04,29,15,10,15.00
2015,04,29,15,11,15.00
2015,04,29,15,12,15.20
2015,04,29,15,13,15.40
2015,04,29,15,14,15.60
2015,04,29,15,15,15.70
2015,04,29,15,16,15.90
2015,04,29,15,17,16.00
2015,04,29,15,18,16.20
2015,04,29,15,19,16.20
2015,04,29,15,20,16.10
2015,04,29,15,21,16.10
2015,04,29,15,22,16.10
2015,04,29,15,23,16.10
2015,04,29,15,24,16.10
2015,04,29,15,25,16.30
2015,04,29,15,26,16.40
2015,04,29,15,27,16.40
2015,04,29,15,28,16.30
2015,04,29,15,29,16.20
2015,04,29,15,30,16.20
2015,04,29,15,31,16.30
2015,04,29,15,32,16.30
2015,04,29,15,33,16.30
2015,04,29,15,34,16.30
2015,04,29,15,35,16.40
2015,04,29,15,36,16.40
2015,04,29,15,37,16.40
2015,04,29,15,38,16.50
2015,04,29,15,39,16.50
2015,04,29,15,40,16.40
2015,04,29,15,41,16.40
2015,04,29,15,42,16.30
2015,04,29,15,43,16.30
2015,04,29,15,44,16.30
2015,04,29,15,45,16.30
2015,04,29,15,46,16.30
2015,04,29,15,47,16.30
2015,04,29,15,48,16.30
2015,04,29,15,49,16.20
2015,04,29,15,50,16.10
2015,04,29,15,51,16.10
2015,04,29,15,52,16.00
2015,04,29,15,53,16.00
2015,04,29,15,54,15.90
2015,04,29,15,55,15.80
2015,04,29,15,56,15.80
2015,04,29,15,57,15.80
2015,04,29,15,58,15.60
2015,04,29,15,59,15.50
2015,04,29,16,00,15.30
2015,04,29,16,01,15.00
2015,04,29,16,02,15.00
2015,04,29,16,03,14.80
2015,04,29,16,04,14.60
2015,04,29,16,05,14.60
2015,04,29,16,06,14.50
2015,04,29,16,07,14.50
2015,04,29,16,08,14.40
2015,04,29,16,09,14.30
2015,04,29,16,10,14.30
2015,04,29,16,11,14.30
2015,04,29,16,12,14.30
2015,04,29,16,13,14.30
2015,04,29,16,14,14.20
2015,04,29,16,15,14.20
2015,04,29,16,16,14.20
2015,04,29,16,17,14.20
2015,04,29,16,18,14.20
2015,04,29,16,19,14.20
2015,04,29,16,20,14.20
2015,04,29,16,21,14.20
2015,04,29,16,22,14.20
2015,04,29,16,23,14.30
2015,04,29,16,24,14.30
2015,04,29,16,25,14.30
2015,04,29,16,26,14.20
2015,04,29,16,27,14.20
2015,04,29,16,28,14.20
2015,04,29,16,29,14.20
2015,04,29,16,30,14.30
2015,04,29,16,31,14.30
2015,04,29,16,32,14.30
2015,04,29,16,33,14.30
2015,04,29,16,34,14.30
2015,04,29,16,35,14.30
2015,04,29,16,36,14.30
2015,04,29,16,37,14.30
2015,04,29,16,38,14.30
2015,04,29,16,39,14.30
2015,04,29,16,40,14.20
2015,04,29,16,41,14.20
2015,04,29,16,42,14.10
2015,04,29,16,43,14.10
2015,04,29,16,44,14.10
2015,04,29,16,45,14.10
2015,04,29,16,46,14.10
2015,04,29,16,47,14.20
2015,04,29,16,48,14.20
2015,04,29,16,49,14.10
2015,04,29,16,50,14.10
2015,04,29,16,51,14.10
2015,04,29,16,52,14.10
2015,04,29,16,53,14.10
2015,04,29,16,54,14.10
2015,04,29,16,55,14.10
2015,04,29,16,56,14.10
2015,04,29,16,57,14.10
2015,04,29,16,58,14.10
2015,04,29,16,59,14.10
2015,04,29,17,00,14.10
2015,04,29,17,01,14.10
2015,04,29,17,02,14.10
2015,04,29,17,03,14.10
2015,04,29,17,04,14.10
2015,04,29,17,05,14.10
2015,04,29,17,06,14.00
2015,04,29,17,07,14.00
2015,04,29,17,08,13.90
2015,04,29,17,09,13.90
2015,04,29,17,10,13.90
2015,04,29,17,11,13.90
2015,04,29,17,12,13.90
2015,04,29,17,13,13.80
2015,04,29,17,14,13.80
2015,04,29,17,15,13.80
2015,04,29,17,16,13.80
2015,04,29,17,17,13.70
2015,04,29,17,18,13.70
2015,04,29,17,19,13.60
2015,04,29,17,20,13.50
2015,04,29,17,21,13.40
2015,04,29,17,22,13.40
2015,04,29,17,23,13.30
2015,04,29,17,24,13.30
2015,04,29,17,25,13.30
2015,04,29,17,26,13.30
2015,04,29,17,27,13.20
2015,04,29,17,28,13.20
2015,04,29,17,29,13.20
2015,04,29,17,30,13.20
2015,04,29,17,31,13.10
2015,04,29,17,32,13.10
2015,04,29,17,33,13.10
2015,04,29,17,34,13.00
2015,04,29,17,35,13.00
2015,04,29,17,36,13.00
2015,04,29,17,37,13.00
2015,04,29,17,38,13.00
2015,04,29,17,39,12.90
2015,04,29,17,40,12.90
2015,04,29,17,41,12.90